Weather History for Ozark, AL

Change the Weather History Date:

Wednesday, December 25, 2013

  Actual Average Record
Temperature  
Mean Temperature 40 °F -  
Max Temperature 53 °F 58 °F 73 °F (2008)
Min Temperature 28 °F 36 °F 28 °F (2003)
Degree Days  
Heating Degree Days 24    
Moisture  
Dew Point 33 °F    
Average Humidity 70    
Maximum Humidity 80    
Minimum Humidity 55    
Precipitation  
Precipitation 0.00 in - - ()
Sea Level Pressure  
Sea Level Pressure 30.34 in    
Wind  
Wind Speed 6 mph (NE)    
Max Wind Speed 10 mph    
Max Gust Speed -    
Visibility 10 miles    
Events      
Averages and records for this station are not official NWS values.
T = Trace of Precipitation, MM = Missing Value Source: NWS Daily Summary

Daily Weather History Graph

Daily Weather History Graph

Search for Another Location

Airport:

Trip Planner

Search our weather history database for the weather conditions in past years. The results will help you decide how hot, cold, wet, or windy it might be!

Date:

Astronomy

Dec. 25, 2013 Rise Set
Actual Time 6:39 AM CST 4:46 PM CST
Civil Twilight 6:12 AM CST 5:13 PM CST
Nautical Twilight 5:42 AM CST 5:43 PM CST
Astronomical Twilight 5:12 AM CST 6:13 PM CST
Moon No Moon Rise 11:31 AM CST (12/25)
Length of Visible Light 11h 00m
Length of Day
10h 07m
Waning Gibbous, 48% of the Moon is Illuminated
Dec 25
Waning Gibbous
Jan 1
New
Jan 7
First Quarter
Jan 15
Full
Jan 23
Last Quarter

Hourly Weather History & Observations

Time (CST) Temp. Windchill Dew Point Humidity Pressure Visibility Wind Dir Wind Speed Gust Speed Precip Events Conditions
12:58 AM 30.6 °F 25.8 °F 23.9 °F 76% 30.40 in 10.0 mi North 4.6 mph - N/A   Clear
1:58 AM 30.0 °F 23.2 °F 23.7 °F 77% 30.38 in 10.0 mi North 6.9 mph - N/A   Clear
2:58 AM 29.3 °F 23.2 °F 23.0 °F 77% 30.38 in 10.0 mi North 5.8 mph - N/A   Clear
3:58 AM 29.7 °F 22.8 °F 23.4 °F 77% 30.38 in 10.0 mi North 6.9 mph - N/A   Clear
4:58 AM 29.1 °F 23.0 °F 23.2 °F 78% 30.39 in 10.0 mi North 5.8 mph - N/A   Clear
5:58 AM 28.6 °F 19.9 °F 23.0 °F 80% 30.39 in 10.0 mi North 9.2 mph - N/A   Clear
6:58 AM 28.4 °F 20.4 °F 22.6 °F 79% 30.39 in 10.0 mi NNE 8.1 mph - N/A   Clear
7:58 AM 30.9 °F 23.5 °F 24.3 °F 76% 30.41 in 10.0 mi NE 8.1 mph - N/A   Clear
8:58 AM 33.8 °F 25.8 °F 26.6 °F 75% 30.41 in 10.0 mi NE 10.4 mph - N/A   Clear
9:58 AM 39.2 °F 34.2 °F 29.3 °F 68% 30.41 in 10.0 mi NE 6.9 mph - N/A   Partly Cloudy
10:58 AM 44.4 °F 41.2 °F 31.8 °F 61% 30.39 in 10.0 mi ENE 5.8 mph - N/A   Partly Cloudy
11:58 AM 48.4 °F - 33.1 °F 56% 30.35 in 10.0 mi ENE 8.1 mph - N/A   Clear
12:58 PM 51.6 °F - 35.8 °F 55% 30.30 in 10.0 mi ENE 6.9 mph - N/A   Partly Cloudy
1:58 PM 53.2 °F - 37.8 °F 56% 30.28 in 10.0 mi ENE 5.8 mph - N/A   Clear
2:58 PM 53.1 °F - 39.2 °F 59% 30.27 in 10.0 mi ENE 8.1 mph - N/A   Clear
3:58 PM 51.6 °F - 39.7 °F 64% 30.28 in 10.0 mi NNE 3.5 mph - N/A   Clear
4:58 PM 49.5 °F - 39.9 °F 70% 30.31 in 10.0 mi NNE 3.5 mph - N/A   Scattered Clouds
5:03 PM 50.0 °F - 41.0 °F 71% 30.29 in 10.0 mi NNE 3.5 mph - N/A   Mostly Cloudy
5:58 PM 49.3 °F - 40.8 °F 73% 30.32 in 10.0 mi NNE 4.6 mph - N/A   Overcast
6:28 PM 48.2 °F - 41.0 °F 76% 30.30 in 10.0 mi NE 4.6 mph - N/A   Overcast
6:33 PM 48.2 °F - 41.0 °F 76% 30.30 in 10.0 mi NE 4.6 mph - N/A   Overcast
6:58 PM 48.4 °F - 40.8 °F 75% 30.32 in 10.0 mi NE 6.9 mph - N/A   Overcast
7:38 PM 48.2 °F - 39.2 °F 71% 30.32 in 10.0 mi NE 6.9 mph - N/A   Overcast
7:53 PM 48.2 °F - 39.2 °F 71% 30.31 in 10.0 mi ENE 5.8 mph - N/A   Overcast
7:58 PM 47.3 °F - 39.2 °F 73% 30.34 in 10.0 mi NE 4.6 mph - N/A   Mostly Cloudy
8:43 PM 46.4 °F 42.9 °F 35.6 °F 66% 30.32 in 10.0 mi NE 6.9 mph - N/A   Mostly Cloudy
8:58 PM 46.8 °F - 36.3 °F 67% 30.33 in 10.0 mi NE 6.9 mph - N/A   Overcast
9:58 PM 46.4 °F 42.4 °F 36.5 °F 68% 30.32 in 10.0 mi NE 8.1 mph - N/A   Overcast
10:58 PM 46.2 °F 43.3 °F 35.8 °F 67% 30.32 in 10.0 mi NE 5.8 mph - N/A   Overcast
11:58 PM 45.9 °F 43.6 °F 35.2 °F 66% 30.31 in 10.0 mi ENE 4.6 mph - N/A   Overcast